Regional Weather Roundup
Issued by NWS Goodland, KS

Home | Current Version | Previous Version | Graphics & Text | Print | Product List | Glossary On
Versions: 1 2 3 4 5 6 7 8 9 10 11 12 13 14 15 16 17 18 19 20 21 22 23 24 25 26 27 28 29 30 31 32 33 34 35 36 37 38 39 40 41 42 43 44 45 46 47 48 49 50
000
ASUS43 KGLD 191759
RWRGLD

GOODLAND FORECAST AREA HOURLY WEATHER ROUNDUP
NATIONAL WEATHER SERVICE GOODLAND KS
1200 PM MDT WED JUL 19 2017

...OFFICIAL OBSERVATIONS...

CITY           SKY/WX    TMP DP  RH WIND       PRES   REMARKS
GOODLAND KS    SUNNY     94  60  32 MISG      30.08F
HILL CITY KS   SUNNY    101  62  27 S14       30.01F HX 102
IMPERIAL NEB   SUNNY     93  67  42 SW8G16    30.03F
MCCOOK NEB     SUNNY    102  62  26 SW14      29.99F HX 104
AKRON CO       SUNNY     96  50  20 S9G17     30.11F
BURLINGTON CO  SUNNY     94  59  31 S18       30.13F
LIMON CO       SUNNY     90  55  30 S13G24    30.18F
$$

...UNOFFICIAL OBSERVATIONS...

CITY           SKY/WX    TMP DP  RH WIND       PRES   REMARKS
LENORA KS        N/A     96  32  10 MISG        N/A
NORTON KS      SUNNY     99  57  25 S10       30.00F
SHARON SPRINGS   N/A     95  65  36 S12G26      N/A
TRENTON NEB      N/A     98  32  10 SW5         N/A
KIT CARSON CO    N/A     90  62  38 MISG        N/A
YUMA CO        FAIR      90  52  27 S9        30.08F
$$




USA.gov is the U.S. government's official web portal to all federal, state and local government web resources and services.